Theta_e
353 361 366 367 368 368 366 364 363 362 361 361 360 361 361 361 363 363 363 362 362 361 361 361 360 360 357 353 354 355 355 355 354 354 353 352 351 350 349 348 349 350 352
357 361 365 366 367 368 365 364 363 361 361 361 362 362 362 361 363 364 364 362 361 360 359 359 359 358 355 354 354 355 355 355 353 353 352 352 350 350 349 349 351 350 352
359 361 361 366 367 367 365 364 362 361 361 361 362 362 361 362 363 363 364 362 359 358 357 356 357 357 355 354 354 355 355 355 354 353 355 354 348 352 351 349 349 349 348
360 362 359 365 366 366 365 363 362 361 361 362 362 362 361 362 363 363 364 361 357 356 356 355 354 354 354 353 353 355 355 354 354 355 354 351 347 353 352 350 349 349 349
359 359 362 365 365 366 365 363 362 362 362 362 362 362 361 362 362 363 363 362 357 356 356 355 355 354 354 353 353 352 352 351 352 353 355 347 349 352 353 350 349 350 350
356 356 362 364 364 365 365 364 363 363 362 362 362 361 362 362 362 362 363 362 358 356 357 356 356 355 354 354 354 355 355 355 356 358 352 353 350 352 353 351 350 352 350
353 354 359 363 363 364 364 363 362 362 361 361 361 361 362 362 362 362 361 360 358 356 357 357 357 356 356 355 354 352 353 355 354 354 350 350 352 355 354 352 352 352 352
351 355 354 362 363 363 363 362 361 360 360 360 360 361 361 361 361 361 361 359 358 356 355 356 356 355 354 352 350 351 352 352 352 353 351 350 353 355 354 355 356 354 353
352 351 352 355 360 362 361 361 360 360 359 359 359 360 360 361 361 361 360 358 356 355 354 353 353 352 351 350 350 350 351 351 349 350 351 349 351 350 352 355 357 357 356
352 350 349 350 351 355 360 360 360 360 359 359 359 360 359 360 360 360 358 359 357 355 354 354 353 352 350 350 350 350 350 350 345 344 344 347 351 347 345 350 356 359 359
349 350 349 347 347 347 347 356 358 358 359 358 358 358 355 348 354 357 354 358 358 356 355 354 353 352 352 352 353 353 351 341 341 342 342 350 349 346 345 350 353 354 359
348 349 349 348 349 348 347 352 349 349 350 349 348 352 346 346 351 350 354 358 357 356 355 354 353 353 351 338 343 351 344 338 336 338 338 350 349 347 346 350 353 355 355
350 350 349 351 355 350 348 350 349 349 348 347 348 351 352 343 347 344 348 352 352 355 351 350 349 345 341 338 337 345 343 339 337 335 338 351 348 348 348 351 354 356 355
351 352 351 351 356 357 350 351 350 350 351 350 351 353 354 348 350 348 345 349 350 349 350 348 347 349 345 344 344 340 340 338 336 336 340 351 348 349 350 352 354 356 356
351 352 352 354 358 362 363 353 353 352 351 354 355 357 353 353 353 351 348 346 345 345 344 344 344 346 344 344 343 342 340 340 341 340 342 354 350 350 352 353 355 357 357
355 354 355 355 361 358 361 365 356 356 356 354 354 356 359 357 358 353 354 350 349 347 346 344 343 344 344 345 344 343 342 344 346 350 345 347 351 351 353 354 356 358 359
356 360 358 358 361 363 362 363 361 358 356 354 353 359 360 360 363 359 355 352 351 353 351 349 347 347 343 344 347 343 344 347 348 352 354 351 351 350 352 354 356 358 357
357 359 363 358 361 362 363 363 363 361 358 356 356 358 359 360 362 364 355 353 353 354 349 346 344 341 340 340 345 343 346 349 349 352 352 353 352 352 352 355 352 349 350
359 358 359 360 359 360 364 362 362 367 361 363 361 360 361 358 357 359 355 353 357 352 349 347 346 348 342 343 343 346 349 347 350 345 351 352 354 353 352 351 345 345 346
358 361 360 359 362 367 362 365 363 367 359 358 357 356 359 359 358 360 355 357 356 353 351 355 353 353 350 347 343 342 349 346 348 348 346 347 347 347 349 353 351 345 340
359 358 359 360 366 361 358 354 359 354 358 357 356 357 361 357 360 360 354 359 358 356 356 357 354 351 350 351 342 345 347 348 346 345 345 345 345 343 343 347 348 345 341
355 356 358 359 362 362 358 359 357 356 359 360 357 358 359 355 355 357 359 359 358 356 357 355 355 347 347 352 345 339 334 338 341 341 340 340 339 339 338 340 339 337 335
351 355 355 360 362 362 362 362 359 356 363 352 352 361 357 354 355 355 353 352 352 351 346 351 349 348 342 344 348 340 329 328 333 335 338 334 335 334 336 337 339 335 335
350 353 354 356 358 361 362 359 359 350 350 352 362 359 356 350 351 350 349 348 348 348 350 348 346 344 344 339 346 348 344 340 329 325 333 336 337 339 338 336 334 335 334
351 351 352 354 356 356 358 359 352 355 351 350 349 350 350 346 345 343 344 343 342 342 343 341 342 341 338 339 342 342 342 341 338 330 325 327 333 334 336 337 336 334 335
345 351 351 351 352 353 355 356 356 354 355 346 346 343 342 342 339 339 337 338 337 336 336 335 338 339 338 336 337 335 334 332 334 334 331 333 330 331 336 335 338 334 336
Wind_Speed
18 19 14 15 15 16 18 17 16 16 16 16 16 15 13 13 14 14 14 12 12 11 11 11 9 7 8 8 8 8 8 7 6 7 7 5 5 5 4 1 2 5 9
22 20 15 15 16 17 18 16 16 16 16 16 16 15 13 13 13 13 13 12 11 11 10 11 10 9 9 8 8 7 7 6 5 5 5 7 5 3 2 1 5 8 6
20 19 17 15 16 16 18 17 15 16 16 16 16 15 13 12 13 12 12 12 11 10 9 9 9 9 8 8 7 7 6 5 3 5 8 10 10 8 4 1 3 3 2
20 18 18 15 16 17 16 18 16 16 16 16 15 15 13 13 12 12 11 11 11 10 9 8 8 8 8 7 7 7 6 4 4 8 9 9 6 12 7 4 3 3 2
19 19 17 16 15 16 16 16 17 17 16 16 16 15 13 12 12 11 10 10 10 10 9 8 8 8 8 7 7 6 5 4 6 10 14 3 5 13 10 6 7 7 5
19 19 19 16 17 17 18 18 17 17 16 16 15 15 14 12 11 11 11 10 10 10 9 8 7 7 7 6 5 4 3 4 8 13 2 3 6 11 9 6 6 6 4
19 18 19 16 17 17 17 18 17 17 17 16 15 15 14 13 11 10 10 10 9 8 9 8 7 6 6 5 4 3 3 6 10 14 2 3 4 11 9 7 7 8 8
17 19 18 15 15 17 17 17 17 16 16 16 15 15 13 13 11 10 9 9 8 8 7 7 6 5 4 4 3 3 5 7 11 12 5 6 14 10 7 8 9 9 10
16 17 16 16 14 13 15 16 16 16 15 14 14 14 13 13 12 12 9 9 8 7 6 6 6 6 5 5 5 5 7 8 11 10 11 7 11 8 5 8 10 11 11
16 17 17 16 16 14 13 12 14 15 16 15 15 15 15 13 12 11 10 10 11 10 9 9 8 8 7 7 8 8 9 11 13 13 9 8 12 9 5 7 10 12 13
15 18 17 17 16 15 15 12 11 11 11 11 12 11 11 11 12 13 12 16 12 12 11 11 11 11 11 10 12 13 12 9 12 9 8 13 10 7 5 8 10 12 14
18 19 18 17 16 16 13 14 12 12 10 11 11 12 10 11 10 11 11 10 10 10 9 10 11 11 10 10 11 15 9 12 11 9 8 12 10 7 7 10 12 13 15
18 15 18 15 15 16 13 11 8 8 8 8 11 11 10 8 8 7 7 7 8 11 9 11 10 9 13 11 11 12 12 9 7 8 10 12 12 10 11 13 13 14 14
19 18 18 18 14 13 11 10 10 9 9 8 10 11 8 6 7 7 6 9 9 8 10 10 9 11 12 10 11 12 11 10 8 7 10 13 12 11 13 15 16 15 15
19 18 17 18 15 11 8 11 10 9 9 10 10 12 9 7 6 7 7 7 6 7 8 8 9 8 9 11 12 13 13 14 14 9 8 9 11 13 14 16 17 17 16
15 18 17 18 15 14 10 8 8 8 9 8 9 10 12 8 4 7 7 8 7 7 7 6 7 7 8 10 12 12 13 12 13 12 10 10 14 15 15 17 18 18 17
12 15 15 16 16 13 13 8 7 7 8 8 7 9 11 11 7 6 7 7 7 6 7 7 7 7 9 9 12 12 11 12 13 11 10 11 11 14 17 19 19 15 15
12 11 9 14 17 12 8 7 4 6 8 7 6 6 8 8 6 6 8 7 6 5 7 6 7 7 9 11 9 10 11 10 11 12 12 10 10 13 8 8 3 8 8
16 16 17 14 15 16 13 9 8 6 6 2 4 4 10 11 10 8 6 7 3 6 7 7 8 7 9 10 11 11 10 10 11 12 13 12 8 10 9 5 9 10 6
17 14 15 13 13 13 10 8 6 3 5 5 6 6 9 6 7 3 7 7 6 8 7 7 7 8 9 9 9 11 10 11 11 11 9 4 12 13 13 14 9 5 2
15 13 16 15 13 9 8 9 8 8 6 6 6 6 6 3 4 7 8 3 5 7 8 8 8 10 9 11 9 10 12 12 12 5 6 10 12 13 14 12 8 2 3
17 17 15 14 14 13 11 10 7 7 5 2 4 4 4 5 3 3 6 5 6 6 8 7 8 9 8 7 7 6 7 9 12 6 5 6 12 11 11 12 9 5 4
17 17 14 13 13 11 8 5 5 7 5 6 8 5 5 5 2 2 4 4 6 5 7 7 8 10 8 10 10 6 3 4 9 8 6 4 8 7 8 9 11 9 5
16 12 11 10 11 8 12 10 9 8 7 4 4 5 6 3 1 3 4 4 5 6 6 7 6 8 10 10 5 5 9 8 5 9 8 6 9 10 8 8 8 10 7
15 12 9 11 10 9 10 10 8 7 8 5 6 7 9 6 6 6 6 5 4 5 6 7 7 7 5 8 8 7 8 8 9 8 11 8 7 8 5 8 7 9 11
13 18 14 13 11 9 8 7 5 8 6 8 7 6 5 5 7 8 8 5 5 6 6 6 6 7 6 8 7 8 6 6 8 9 8 11 12 12 9 9 7 6 11
Wind_Direction
133 137 138 139 144 148 146 147 144 141 140 138 136 135 138 137 134 130 124 118 117 123 128 132 136 140 131 122 109 99 92 90 92 92 96 96 98 101 92 76 266 172 111
134 148 143 144 147 150 148 147 146 142 141 142 136 139 141 143 140 136 129 124 124 129 130 129 131 136 138 135 129 122 119 121 127 128 150 155 141 126 123 309 338 57 102
136 150 156 144 146 149 149 147 145 142 144 143 138 140 144 146 141 137 129 126 128 133 131 133 137 140 140 140 136 134 136 143 152 203 216 229 155 163 170 247 333 15 30
141 150 155 147 146 146 149 146 144 143 142 140 139 140 148 148 145 140 129 128 132 134 133 138 140 142 143 146 147 147 151 159 211 246 243 226 151 152 165 203 250 271 260
149 158 140 147 144 144 144 143 142 142 142 139 141 143 147 147 142 135 130 131 135 138 139 144 142 143 146 152 154 152 161 190 238 255 253 177 299 144 163 187 216 223 234
152 159 137 144 144 144 145 142 140 140 139 140 144 145 145 144 139 138 140 141 142 146 145 143 141 141 147 152 157 172 203 245 265 247 208 109 264 141 158 181 247 286 226
155 145 152 145 144 144 144 140 142 142 142 145 145 147 147 144 141 138 139 142 143 149 151 150 152 155 163 176 186 214 254 279 279 305 294 213 42 143 160 187 221 244 255
151 136 148 144 146 147 144 143 144 145 144 146 146 147 144 141 139 139 137 141 147 154 159 158 160 168 178 203 228 268 289 295 286 271 282 285 133 148 177 201 218 232 247
148 145 153 161 148 141 143 146 147 147 146 146 148 147 149 145 148 146 148 146 146 152 162 169 178 190 203 221 245 263 272 277 281 282 301 259 115 129 177 228 235 233 236
153 153 161 166 166 165 159 149 151 152 151 153 155 156 155 155 156 155 154 164 164 169 176 184 189 199 210 220 232 240 251 263 259 266 265 257 144 154 198 237 247 243 241
162 153 166 167 164 173 165 153 145 149 148 152 156 156 154 183 181 164 201 157 179 185 188 192 195 203 210 220 224 224 232 252 259 251 255 132 155 157 215 252 256 254 246
172 161 165 172 165 174 164 154 175 168 178 185 183 175 198 199 183 193 167 168 183 201 205 207 211 213 217 237 207 216 229 238 246 259 264 155 164 177 222 242 246 248 248
173 169 167 172 165 183 169 159 176 172 175 187 189 177 220 202 184 217 169 188 209 206 221 205 211 228 232 240 242 201 224 239 250 253 255 165 171 190 221 240 241 241 246
174 176 172 170 167 201 168 166 182 180 183 187 187 180 221 224 189 212 222 197 200 210 217 242 225 216 237 248 275 281 266 261 258 257 259 175 183 199 228 232 233 235 236
179 180 181 167 168 196 202 169 197 195 186 189 176 178 218 216 206 223 247 260 239 221 234 230 250 264 251 246 255 253 257 268 270 269 276 188 189 206 221 240 244 238 234
192 177 181 169 163 188 203 182 196 195 171 206 186 181 208 211 218 238 227 237 253 253 265 266 260 271 259 256 266 252 259 266 274 281 283 272 196 204 217 234 241 248 249
186 181 179 177 167 189 197 201 203 185 238 196 207 180 192 208 220 249 271 250 254 253 270 270 273 272 271 270 270 268 281 269 267 265 265 273 269 214 224 223 228 239 258
195 158 167 185 154 171 179 198 208 220 208 206 210 166 201 222 226 193 253 256 267 277 284 284 292 274 273 271 267 273 285 270 279 275 270 279 275 275 257 214 336 282 280
183 177 185 182 174 177 196 196 198 183 222 135 243 210 181 219 200 225 256 269 294 276 268 274 273 284 292 284 282 285 280 271 267 268 269 281 301 288 283 234 208 240 280
178 172 180 181 186 178 172 201 191 153 222 183 216 221 219 207 215 224 241 261 252 267 283 327 315 303 297 282 280 276 283 285 280 270 264 294 304 292 284 276 255 244 248
148 167 179 180 175 160 168 187 182 184 214 195 200 185 133 211 205 216 247 296 272 270 281 281 283 281 277 287 314 290 292 290 280 266 224 296 281 294 299 288 265 225 236
162 178 181 177 166 171 175 196 199 180 189 176 116 141 199 207 215 252 253 281 286 271 265 283 280 287 276 275 289 293 286 284 283 301 308 305 294 297 289 277 276 272 286
178 172 184 178 167 185 152 140 136 130 143 178 148 163 176 204 227 2 309 288 314 300 288 331 317 317 309 296 274 266 296 271 325 283 299 279 266 254 277 278 262 260 264
177 161 173 172 149 163 151 162 171 174 169 136 120 120 123 67 52 26 16 344 334 335 345 336 6 337 318 301 304 263 257 270 287 292 292 244 262 250 246 264 255 250 225
145 151 145 134 140 151 171 161 172 211 132 142 100 110 84 86 55 54 33 36 9 317 352 337 332 321 312 312 314 304 291 267 259 252 283 292 292 291 211 242 262 229 223
149 142 145 154 146 154 164 139 154 124 168 138 131 150 133 120 95 45 52 32 34 357 8 338 336 314 332 315 316 309 299 305 296 289 282 285 286 291 305 297 248 239 260